COSMOS 2547

Last updated on Tue Sep 22 2026 00:03:02 GMT+0000 (Coordinated Universal Time)

1 46805U 20075A 26264.14375632 -.00000015 00000+0 00000+0 0 9993 2 46805 64.6006 189.2753 0008321 235.5366 124.3957 2.13099882 45952
UTC large
Height (km)
Speed (km/s)
/
Latitude / Longitude
Inclination (degrees)
Orbital Period (minutes)
Azimuth
Elevation
Range (km)
Doppler Factor

Next 0 passes for location: London (51.5072 / 0.1276)

No passes found over London.
COSMOS 2547